Location: *
(40.7765°S, 106.5327°E)
Time: 15:21:35
(UTC+00:00)

Meteor 2-6 Rocket - Pass Details

Date: 26 May 2022
Orbit: 806 x 914 km, 81.3° (Epoch: 05 July)

Event Time Altitude Azimuth Distance (km) Brightness Sun altitude
Rises 11:08:57 0° 184° (S) 3,459 7.3 -16.9°
Reaches altitude 10° 11:11:32 10° 178° (S) 2,499 6.5 -17.4°
Maximum altitude 11:16:58 47° 104° (ESE) 1,100 4.3 -18.4°
Drops below altitude 10° 11:22:13 10° 31° (NNE) 2,412 6.4 -19.4°
Sets 11:24:39 0° 24° (NNE) 3,327 7.2 -19.8°
